User: anonymous   Login
Location: LDNL
(36.4545°S, 141.6685°E)
Time: 04:37:45
(UTC+10:00)
Language:

HuskySat-1 - Orbit

View from above orbital plane
View from above orbital plane
View from above satellite
View from above satellite

Ground track
Ground track

The orbit data is extracted from the following two-line orbital elements,

1 45117U 19071G   22135.83640539  .00041076  00000-0  83236-3 0  9990
2 45117  51.6366 215.3185 0008893  42.2070 317.9600 15.45947820128388
Epoch (UTC): 15 May 2022 20:04:25
Eccentricity: 0.0008893
inclination: 51.6366°
perigee height: 422 km
apogee height: 434 km
right ascension of ascending node: 215.3185°
argument of perigee: 42.2070°
revolutions per day: 15.45947820
mean anomaly at epoch: 317.9600°
orbit number at epoch: 12838

The dashed part of the orbit path shows where the satellite is in the earth's shadow,  

DLR